AKJ360Y VABB-VECC

Flight info

Callsign AKJ360Y
Flight time 2h 27m
Altitude 35000
Route ANOLI2A NONEN Q19 KAMLO W108 NNP G450 JJS JJS2A
Aircraft B738/M-SDE2E3FGHIRWXY/LB1

Departure

Time 2026-04-26 11:17
Airport Chhatrapati Shivaji Maharaj International Airport (VABB)

Arrival

Time 2026-04-26 13:44
Airport Netaji Subhash Chandra Bose International Airport (VECC)
Time Latitude Longitude Altitude Speed Heading
2026-04-26 11:02 19.09154 72.85410 48 ft 0 kts 359°
2026-04-26 11:06 19.09144 72.85410 48 ft 2 kts 360°
2026-04-26 11:06 19.09133 72.85410 44 ft 2 kts
2026-04-26 11:06 19.09111 72.85409 46 ft 2 kts
2026-04-26 11:06 19.09095 72.85405 45 ft 2 kts 35°
2026-04-26 11:07 19.09088 72.85393 45 ft 1 kts 89°
2026-04-26 11:07 19.09088 72.85390 45 ft 0 kts 90°
2026-04-26 11:09 19.09075 72.85417 48 ft 9 kts 150°
2026-04-26 11:09 19.09025 72.85463 47 ft 12 kts 92°
2026-04-26 11:10 19.09026 72.85575 48 ft 19 kts 88°
2026-04-26 11:10 19.09028 72.85737 48 ft 24 kts 89°
2026-04-26 11:10 19.09032 72.85916 48 ft 24 kts 88°
2026-04-26 11:10 19.09034 72.86085 48 ft 23 kts 89°
2026-04-26 11:11 19.09036 72.86249 48 ft 22 kts 88°
2026-04-26 11:11 19.09039 72.86408 48 ft 21 kts 90°
2026-04-26 11:11 19.09040 72.86563 48 ft 21 kts 88°
2026-04-26 11:11 19.09043 72.86714 49 ft 21 kts 89°
2026-04-26 11:12 19.09044 72.86867 49 ft 21 kts 89°
2026-04-26 11:12 19.09046 72.87017 49 ft 20 kts 89°
2026-04-26 11:12 19.09049 72.87162 49 ft 19 kts 89°
2026-04-26 11:12 19.09050 72.87302 49 ft 19 kts 88°
2026-04-26 11:13 19.09051 72.87438 48 ft 18 kts 91°
2026-04-26 11:13 19.09054 72.87569 48 ft 18 kts 88°
2026-04-26 11:13 19.09055 72.87696 48 ft 17 kts 88°
2026-04-26 11:13 19.09025 72.87803 48 ft 16 kts 159°
2026-04-26 11:14 19.08997 72.87807 47 ft 0 kts 178°
2026-04-26 11:16 19.08996 72.87807 47 ft 1 kts 178°
2026-04-26 11:16 19.08948 72.87808 45 ft 14 kts 185°
2026-04-26 11:16 19.08882 72.87692 47 ft 26 kts 271°
2026-04-26 11:16 19.08881 72.87480 48 ft 34 kts 269°
2026-04-26 11:17 19.08874 72.86916 50 ft 120 kts 269°
2026-04-26 11:17 19.08850 72.85774 149 ft 184 kts 268°
2026-04-26 11:17 19.08809 72.84292 715 ft 217 kts 267°
2026-04-26 11:17 19.08761 72.82728 1994 ft 203 kts 270°
2026-04-26 11:18 19.08775 72.81227 2974 ft 215 kts 270°
2026-04-26 11:18 19.08763 72.79514 3247 ft 247 kts 269°
2026-04-26 11:18 19.08737 72.78262 3634 ft 255 kts 269°
2026-04-26 11:18 19.08708 72.76383 4408 ft 261 kts 270°
2026-04-26 11:19 19.08731 72.74421 5225 ft 264 kts 279°
2026-04-26 11:19 19.09418 72.72649 5942 ft 268 kts 308°
2026-04-26 11:19 19.10847 72.71380 6141 ft 270 kts 336°
2026-04-26 11:19 19.12662 72.71042 6254 ft 270 kts
2026-04-26 11:20 19.14450 72.71631 6317 ft 273 kts 31°
2026-04-26 11:20 19.15988 72.72857 6260 ft 277 kts 36°
2026-04-26 11:20 19.17638 72.73890 6262 ft 276 kts 23°
2026-04-26 11:20 19.19466 72.74474 6305 ft 273 kts
2026-04-26 11:21 19.21367 72.74550 6270 ft 274 kts 355°
2026-04-26 11:21 19.23265 72.74386 6216 ft 276 kts 354°
2026-04-26 11:21 19.25180 72.74234 6247 ft 274 kts 356°
2026-04-26 11:21 19.27078 72.74110 6266 ft 273 kts 356°
2026-04-26 11:22 19.28977 72.74027 6299 ft 274 kts
2026-04-26 11:22 19.30800 72.74630 6721 ft 280 kts 31°
2026-04-26 11:22 19.32333 72.75889 7637 ft 279 kts 41°
2026-04-26 11:22 19.33787 72.77260 8448 ft 281 kts 41°
2026-04-26 11:23 19.35249 72.78657 9207 ft 285 kts 41°
2026-04-26 11:23 19.36734 72.80069 9961 ft 288 kts 41°
2026-04-26 11:23 19.38252 72.81503 10493 ft 302 kts 41°
2026-04-26 11:23 19.39884 72.83035 10749 ft 322 kts 41°
2026-04-26 11:24 19.41588 72.84629 11349 ft 330 kts 41°
2026-04-26 11:24 19.43317 72.86242 12100 ft 332 kts 41°
2026-04-26 11:24 19.45050 72.87878 12835 ft 336 kts 45°
2026-04-26 11:24 19.46385 72.89911 13486 ft 340 kts 67°
2026-04-26 11:25 19.47027 72.92329 14198 ft 342 kts 77°
2026-04-26 11:25 19.47514 72.94811 14859 ft 346 kts 78°
2026-04-26 11:25 19.47992 72.97325 15503 ft 350 kts 78°
2026-04-26 11:25 19.48487 72.99859 16139 ft 353 kts 78°
2026-04-26 11:26 19.49001 73.02417 16766 ft 357 kts 78°
2026-04-26 11:26 19.49529 73.05001 17377 ft 360 kts 78°
2026-04-26 11:26 19.50064 73.07605 17969 ft 363 kts 77°
2026-04-26 11:26 19.50617 73.10227 18544 ft 367 kts 77°
2026-04-26 11:27 19.51180 73.12876 19118 ft 370 kts 77°
2026-04-26 11:27 19.51747 73.15543 19673 ft 373 kts 77°
2026-04-26 11:27 19.52319 73.18236 20215 ft 376 kts 77°
2026-04-26 11:27 19.52893 73.20949 20742 ft 379 kts 77°
2026-04-26 11:28 19.53472 73.23692 21254 ft 382 kts 77°
2026-04-26 11:28 19.54054 73.26451 21756 ft 385 kts 77°
2026-04-26 11:28 19.54642 73.29238 22251 ft 388 kts 77°
2026-04-26 11:28 19.55224 73.32004 22726 ft 391 kts 77°
2026-04-26 11:29 19.55826 73.34867 23191 ft 394 kts 77°
2026-04-26 11:29 19.56350 73.37689 23620 ft 397 kts 82°
2026-04-26 11:29 19.56685 73.40605 24060 ft 400 kts 84°
2026-04-26 11:29 19.56940 73.43556 24464 ft 403 kts 85°
2026-04-26 11:30 19.57185 73.46520 24474 ft 404 kts 85°
2026-04-26 11:30 19.57358 73.48523 24499 ft 403 kts 84°
2026-04-26 11:30 19.57717 73.52444 24499 ft 404 kts 84°
2026-04-26 11:30 19.58002 73.55406 24504 ft 404 kts 84°
2026-04-26 11:31 19.58290 73.58373 24506 ft 405 kts 84°
2026-04-26 11:31 19.58584 73.61357 24663 ft 410 kts 84°
2026-04-26 11:31 19.58883 73.64379 25020 ft 414 kts 84°
2026-04-26 11:31 19.59205 73.67414 25473 ft 415 kts 80°
2026-04-26 11:32 19.60100 73.70315 25869 ft 416 kts 63°
2026-04-26 11:32 19.61473 73.73024 26285 ft 418 kts 61°
2026-04-26 11:32 19.62883 73.75724 26673 ft 420 kts 61°
2026-04-26 11:32 19.64302 73.78447 26987 ft 423 kts 61°
2026-04-26 11:33 19.65719 73.81195 27329 ft 426 kts 61°
2026-04-26 11:33 19.67131 73.83965 27663 ft 428 kts 62°
2026-04-26 11:33 19.68542 73.86756 28030 ft 430 kts 62°
2026-04-26 11:33 19.69953 73.89556 28349 ft 432 kts 62°
2026-04-26 11:34 19.71372 73.92377 28670 ft 434 kts 62°
2026-04-26 11:34 19.72796 73.95209 28977 ft 436 kts 62°
2026-04-26 11:34 19.74227 73.98055 29283 ft 438 kts 62°
2026-04-26 11:34 19.75666 74.00915 29569 ft 440 kts 62°
2026-04-26 11:35 19.76995 74.03850 29872 ft 442 kts 67°
2026-04-26 11:35 19.78131 74.06877 30185 ft 443 kts 69°
2026-04-26 11:35 19.79185 74.09939 30461 ft 444 kts 70°
2026-04-26 11:35 19.80235 74.13049 30715 ft 447 kts 70°
2026-04-26 11:36 19.81295 74.16157 30965 ft 448 kts 70°
2026-04-26 11:36 19.82377 74.19270 31237 ft 450 kts 69°
2026-04-26 11:36 19.83472 74.22375 31551 ft 450 kts 69°
2026-04-26 11:36 19.84565 74.25441 31876 ft 449 kts 69°
2026-04-26 11:37 19.85672 74.28534 32199 ft 448 kts 69°
2026-04-26 11:37 19.86781 74.31627 32528 ft 447 kts 69°
2026-04-26 11:37 19.87887 74.34713 32850 ft 447 kts 69°
2026-04-26 11:37 19.88990 74.37794 33178 ft 446 kts 69°
2026-04-26 11:38 19.90089 74.40869 33488 ft 444 kts 69°
2026-04-26 11:38 19.91185 74.43937 33802 ft 443 kts 69°
2026-04-26 11:38 19.92276 74.46994 34083 ft 443 kts 69°
2026-04-26 11:38 19.93368 74.50056 34315 ft 444 kts 69°
2026-04-26 11:39 19.94462 74.53128 34499 ft 445 kts 69°
2026-04-26 11:39 19.95558 74.56204 34705 ft 446 kts 69°
2026-04-26 11:39 19.96652 74.59281 34962 ft 445 kts 69°
2026-04-26 11:39 19.97752 74.62374 34982 ft 449 kts 69°
2026-04-26 11:40 19.99960 74.68586 34987 ft 449 kts 69°
2026-04-26 11:40 20.02183 74.74727 35002 ft 442 kts 68°
2026-04-26 11:42 20.11181 74.99087 34999 ft 443 kts 69°
2026-04-26 11:43 20.13421 75.05192 35000 ft 443 kts 69°
2026-04-26 11:43 20.15663 75.11307 35005 ft 444 kts 69°
2026-04-26 11:44 20.17905 75.17430 35004 ft 444 kts 69°
2026-04-26 11:44 20.20147 75.23562 34998 ft 445 kts 69°
2026-04-26 11:45 20.22391 75.29706 34994 ft 445 kts 69°
2026-04-26 11:45 20.24637 75.35862 35001 ft 446 kts 69°
2026-04-26 11:46 20.26881 75.42022 34999 ft 446 kts 69°
2026-04-26 11:46 20.29124 75.48185 35003 ft 446 kts 69°
2026-04-26 11:47 20.31084 75.54459 34997 ft 446 kts 74°
2026-04-26 11:47 20.32704 75.60840 35002 ft 446 kts 75°
2026-04-26 11:48 20.34331 75.67212 35001 ft 446 kts 74°
2026-04-26 11:48 20.36006 75.73574 35002 ft 445 kts 74°
2026-04-26 11:49 20.37680 75.79878 34997 ft 445 kts 74°
2026-04-26 11:49 20.39362 75.86223 34998 ft 445 kts 74°
2026-04-26 11:50 20.41039 75.92567 35006 ft 444 kts 74°
2026-04-26 11:50 20.42712 75.98903 34998 ft 444 kts 74°
2026-04-26 11:51 20.44420 76.05225 34995 ft 444 kts 73°
2026-04-26 11:51 20.46174 76.11538 34999 ft 444 kts 73°
2026-04-26 11:52 20.47629 76.16781 34996 ft 444 kts 73°
2026-04-26 11:52 20.49665 76.24160 35003 ft 444 kts 73°
2026-04-26 11:53 20.51401 76.30479 35004 ft 444 kts 73°
2026-04-26 11:54 20.54000 76.39957 35007 ft 444 kts 73°
2026-04-26 11:54 20.55729 76.46278 35006 ft 444 kts 73°
2026-04-26 11:55 20.57456 76.52598 35001 ft 444 kts 73°
2026-04-26 11:55 20.59180 76.58917 35005 ft 443 kts 73°
2026-04-26 11:56 20.60900 76.65231 35006 ft 443 kts 73°
2026-04-26 11:56 20.62617 76.71545 34997 ft 443 kts 73°
2026-04-26 11:57 20.64331 76.77856 35001 ft 442 kts 73°
2026-04-26 11:57 20.66030 76.84121 34995 ft 442 kts 73°
2026-04-26 11:58 20.67736 76.90423 35006 ft 442 kts 74°
2026-04-26 11:58 20.69439 76.96725 35004 ft 442 kts 74°
2026-04-26 11:59 20.71140 77.03027 34998 ft 441 kts 74°
2026-04-26 11:59 20.72836 77.09325 34997 ft 441 kts 74°
2026-04-26 12:00 20.74531 77.15626 34998 ft 441 kts 74°
2026-04-26 12:00 20.76223 77.21926 34998 ft 441 kts 74°
2026-04-26 12:01 20.77912 77.28225 35005 ft 441 kts 74°
2026-04-26 12:01 20.79600 77.34531 35002 ft 441 kts 74°
2026-04-26 12:02 20.81286 77.40836 35000 ft 441 kts 74°
2026-04-26 12:02 20.82969 77.47147 35000 ft 441 kts 74°
2026-04-26 12:03 20.84650 77.53455 35000 ft 441 kts 74°
2026-04-26 12:03 20.86345 77.59762 34997 ft 442 kts 73°
2026-04-26 12:04 20.88075 77.66069 35006 ft 442 kts 73°
2026-04-26 12:04 20.89798 77.72373 34996 ft 442 kts 73°
2026-04-26 12:05 20.91516 77.78684 35002 ft 442 kts 74°
2026-04-26 12:05 20.92570 77.84023 35008 ft 442 kts 81°
2026-04-26 12:06 20.93520 77.91593 34998 ft 442 kts 83°
2026-04-26 12:06 20.94321 77.98116 35002 ft 442 kts 82°
2026-04-26 12:07 20.95161 78.04636 35003 ft 442 kts 82°
2026-04-26 12:07 20.95880 78.10095 35004 ft 443 kts 82°
2026-04-26 12:08 20.96740 78.16613 34998 ft 443 kts 82°
2026-04-26 12:08 20.97598 78.23138 34998 ft 442 kts 82°
2026-04-26 12:09 20.98451 78.29653 34997 ft 442 kts 82°
2026-04-26 12:09 20.99296 78.36130 34998 ft 442 kts 82°
2026-04-26 12:10 21.00144 78.42647 34998 ft 442 kts 82°
2026-04-26 12:10 21.00988 78.49160 35004 ft 442 kts 82°
2026-04-26 12:11 21.01831 78.55676 35000 ft 442 kts 82°
2026-04-26 12:11 21.02671 78.62190 34997 ft 442 kts 82°
2026-04-26 12:12 21.03508 78.68707 35006 ft 442 kts 82°
2026-04-26 12:12 21.04343 78.75225 35006 ft 442 kts 82°
2026-04-26 12:13 21.05176 78.81745 34998 ft 442 kts 82°
2026-04-26 12:13 21.06006 78.88266 34999 ft 442 kts 82°
2026-04-26 12:14 21.06834 78.94788 35009 ft 442 kts 82°
2026-04-26 12:14 21.07658 79.01303 35005 ft 442 kts 82°
2026-04-26 12:15 21.08690 79.07786 34993 ft 441 kts 74°
2026-04-26 12:15 21.10441 79.14080 34998 ft 441 kts 72°
2026-04-26 12:16 21.12266 79.20354 35003 ft 441 kts 73°
2026-04-26 12:16 21.14053 79.26640 35002 ft 441 kts 73°
2026-04-26 12:17 21.15807 79.32932 35004 ft 441 kts 73°
2026-04-26 12:17 21.17550 79.39229 35001 ft 441 kts 73°
2026-04-26 12:18 21.19289 79.45525 35005 ft 441 kts 73°
2026-04-26 12:18 21.21027 79.51823 34998 ft 441 kts 73°
2026-04-26 12:19 21.22751 79.58078 35005 ft 440 kts 73°
2026-04-26 12:19 21.24485 79.64378 34996 ft 440 kts 73°
2026-04-26 12:20 21.26227 79.70718 34997 ft 440 kts 73°
2026-04-26 12:20 21.27954 79.77015 34996 ft 440 kts 73°
2026-04-26 12:21 21.29680 79.83317 34996 ft 440 kts 73°
2026-04-26 12:21 21.31393 79.89578 34996 ft 440 kts 73°
2026-04-26 12:22 21.33113 79.95880 35001 ft 440 kts 73°
2026-04-26 12:22 21.34833 80.02190 35000 ft 441 kts 73°
2026-04-26 12:23 21.36550 80.08497 35000 ft 441 kts 73°
2026-04-26 12:23 21.38266 80.14812 35007 ft 441 kts 73°
2026-04-26 12:24 21.39977 80.21123 35008 ft 441 kts 73°
2026-04-26 12:24 21.41690 80.27445 35000 ft 441 kts 73°
2026-04-26 12:25 21.44252 80.36925 35004 ft 441 kts 73°
2026-04-26 12:25 21.45957 80.43249 35003 ft 441 kts 73°
2026-04-26 12:26 21.47659 80.49569 34999 ft 441 kts 74°
2026-04-26 12:26 21.49360 80.55895 34999 ft 441 kts 74°
2026-04-26 12:27 21.51058 80.62216 35000 ft 441 kts 74°
2026-04-26 12:27 21.52746 80.68500 34995 ft 441 kts 74°
2026-04-26 12:28 21.54455 80.74874 34999 ft 441 kts 74°
2026-04-26 12:28 21.56150 80.81206 35005 ft 441 kts 74°
2026-04-26 12:29 21.57844 80.87543 34999 ft 442 kts 74°
2026-04-26 12:30 21.60372 80.97026 35000 ft 442 kts 74°
2026-04-26 12:30 21.62062 81.03374 34996 ft 442 kts 74°
2026-04-26 12:31 21.64591 81.12901 34999 ft 442 kts 74°
2026-04-26 12:31 21.66273 81.19247 34999 ft 441 kts 74°
2026-04-26 12:32 21.67949 81.25583 34998 ft 441 kts 74°
2026-04-26 12:33 21.70483 81.35073 34996 ft 440 kts 73°
2026-04-26 12:33 21.72221 81.41381 34999 ft 439 kts 73°
2026-04-26 12:34 21.73950 81.47678 34999 ft 439 kts 73°
2026-04-26 12:34 21.75671 81.53979 35005 ft 439 kts 73°
2026-04-26 12:35 21.77388 81.60278 35001 ft 439 kts 73°
2026-04-26 12:35 21.79077 81.66585 34996 ft 439 kts 75°
2026-04-26 12:36 21.80622 81.72881 35007 ft 438 kts 75°
2026-04-26 12:36 21.82162 81.79233 35008 ft 439 kts 75°
2026-04-26 12:37 21.83715 81.85578 34999 ft 439 kts 75°
2026-04-26 12:37 21.85273 81.91928 35008 ft 439 kts 75°
2026-04-26 12:38 21.86830 81.98284 35005 ft 439 kts 75°
2026-04-26 12:38 21.88371 82.04640 35004 ft 439 kts 75°
2026-04-26 12:39 21.89893 82.11008 34997 ft 439 kts 75°
2026-04-26 12:39 21.91413 82.17384 35000 ft 439 kts 75°
2026-04-26 12:40 21.92931 82.23754 35006 ft 439 kts 75°
2026-04-26 12:40 21.94450 82.30132 35000 ft 439 kts 75°
2026-04-26 12:41 21.95966 82.36511 34996 ft 439 kts 76°
2026-04-26 12:41 21.97480 82.42888 35000 ft 439 kts 76°
2026-04-26 12:42 21.98990 82.49267 35000 ft 439 kts 76°
2026-04-26 12:42 22.00499 82.55649 34996 ft 439 kts 76°
2026-04-26 12:43 22.02003 82.62025 35007 ft 439 kts 76°
2026-04-26 12:43 22.03507 82.68409 35002 ft 439 kts 76°
2026-04-26 12:44 22.05007 82.74788 34998 ft 439 kts 76°
2026-04-26 12:44 22.06503 82.81165 34998 ft 439 kts 76°
2026-04-26 12:45 22.07996 82.87541 35001 ft 439 kts 76°
2026-04-26 12:45 22.09487 82.93917 35004 ft 438 kts 76°
2026-04-26 12:46 22.10975 83.00295 35000 ft 438 kts 76°
2026-04-26 12:46 22.12460 83.06670 35001 ft 438 kts 76°
2026-04-26 12:47 22.13942 83.13048 35005 ft 438 kts 76°
2026-04-26 12:47 22.15423 83.19430 35007 ft 438 kts 76°
2026-04-26 12:48 22.16900 83.25810 35002 ft 438 kts 76°
2026-04-26 12:48 22.18376 83.32194 35004 ft 438 kts 76°
2026-04-26 12:49 22.19842 83.38580 35006 ft 439 kts 76°
2026-04-26 12:49 22.21307 83.44966 34994 ft 439 kts 76°
2026-04-26 12:50 22.22775 83.51361 35006 ft 439 kts 76°
2026-04-26 12:50 22.24236 83.57712 34999 ft 439 kts 76°
2026-04-26 12:51 22.25711 83.64154 35000 ft 439 kts 76°
2026-04-26 12:51 22.27162 83.70517 35000 ft 439 kts 76°
2026-04-26 12:52 22.28620 83.76922 34999 ft 440 kts 76°
2026-04-26 12:52 22.30077 83.83335 35004 ft 440 kts 76°
2026-04-26 12:53 22.31533 83.89752 35007 ft 440 kts 76°
2026-04-26 12:53 22.32992 83.96159 34997 ft 440 kts 76°
2026-04-26 12:54 22.34476 84.02567 35000 ft 439 kts 76°
2026-04-26 12:54 22.35707 84.07883 35002 ft 439 kts 76°
2026-04-26 12:55 22.37184 84.14284 34999 ft 439 kts 76°
2026-04-26 12:55 22.38654 84.20678 34995 ft 439 kts 76°
2026-04-26 12:56 22.40122 84.27075 34999 ft 438 kts 76°
2026-04-26 12:56 22.41585 84.33465 35000 ft 438 kts 76°
2026-04-26 12:57 22.43045 84.39853 34998 ft 438 kts 76°
2026-04-26 12:57 22.44503 84.46245 35007 ft 438 kts 76°
2026-04-26 12:58 22.46683 84.55823 35002 ft 437 kts 76°
2026-04-26 12:58 22.48133 84.62213 35005 ft 437 kts 76°
2026-04-26 12:59 22.49581 84.68603 35004 ft 438 kts 76°
2026-04-26 12:59 22.51026 84.74991 35004 ft 438 kts 76°
2026-04-26 13:00 22.52470 84.81389 34997 ft 438 kts 76°
2026-04-26 13:00 22.53890 84.87795 35006 ft 438 kts 77°
2026-04-26 13:01 22.55270 84.94218 35005 ft 438 kts 77°
2026-04-26 13:01 22.56638 85.00603 34993 ft 439 kts 77°
2026-04-26 13:02 22.58025 85.07071 35005 ft 439 kts 77°
2026-04-26 13:02 22.59404 85.13503 35009 ft 439 kts 77°
2026-04-26 13:03 22.60771 85.19887 34997 ft 438 kts 77°
2026-04-26 13:03 22.62145 85.26317 35000 ft 438 kts 77°
2026-04-26 13:04 22.63516 85.32746 34998 ft 438 kts 77°
2026-04-26 13:04 22.64883 85.39174 35000 ft 438 kts 77°
2026-04-26 13:05 22.66248 85.45601 35006 ft 438 kts 77°
2026-04-26 13:05 22.67611 85.52032 35008 ft 438 kts 77°
2026-04-26 13:06 22.68970 85.58463 34998 ft 438 kts 77°
2026-04-26 13:06 22.70326 85.64890 34996 ft 438 kts 77°
2026-04-26 13:07 22.71685 85.71344 33551 ft 445 kts 75°
2026-04-26 13:07 22.72371 85.74617 33733 ft 446 kts 75°
2026-04-26 13:07 22.73070 85.77936 33537 ft 460 kts 75°
2026-04-26 13:08 22.73794 85.81369 33316 ft 474 kts 75°
2026-04-26 13:08 22.74536 85.84898 33072 ft 486 kts 75°
2026-04-26 13:08 22.75286 85.88484 32829 ft 490 kts 75°
2026-04-26 13:08 22.76034 85.92069 32558 ft 485 kts 78°
2026-04-26 13:09 22.76760 85.95604 32386 ft 475 kts 76°
2026-04-26 13:09 22.77472 85.99048 32298 ft 461 kts 75°
2026-04-26 13:09 22.78167 86.02388 32186 ft 447 kts 75°
2026-04-26 13:09 22.78843 86.05619 32086 ft 433 kts 75°
2026-04-26 13:10 22.79500 86.08760 31903 ft 422 kts 75°
2026-04-26 13:10 22.80143 86.11841 31568 ft 417 kts 75°
2026-04-26 13:10 22.80777 86.14894 31203 ft 413 kts 76°
2026-04-26 13:10 22.81529 86.17865 30849 ft 405 kts 62°
2026-04-26 13:11 22.82853 86.20502 30527 ft 394 kts 54°
2026-04-26 13:11 22.84275 86.23009 30248 ft 387 kts 54°
2026-04-26 13:11 22.85695 86.25474 29923 ft 383 kts 54°
2026-04-26 13:11 22.87094 86.27914 29576 ft 379 kts 54°
2026-04-26 13:12 22.88464 86.30339 29212 ft 375 kts 54°
2026-04-26 13:12 22.89805 86.32740 28843 ft 370 kts 55°
2026-04-26 13:12 22.91126 86.35117 28462 ft 366 kts 55°
2026-04-26 13:12 22.92428 86.37469 28087 ft 362 kts 55°
2026-04-26 13:13 22.93715 86.39796 27722 ft 358 kts 55°
2026-04-26 13:13 22.94987 86.42096 27371 ft 353 kts 55°
2026-04-26 13:13 22.96244 86.44370 27019 ft 349 kts 55°
2026-04-26 13:13 22.97489 86.46622 26683 ft 347 kts 54°
2026-04-26 13:14 22.98730 86.48885 26393 ft 357 kts 59°
2026-04-26 13:14 22.99515 86.51521 26090 ft 382 kts 85°
2026-04-26 13:14 22.99484 86.54455 25922 ft 398 kts 93°
2026-04-26 13:14 22.99280 86.57467 25557 ft 409 kts 94°
2026-04-26 13:15 22.99028 86.60524 25173 ft 404 kts 95°
2026-04-26 13:15 22.98776 86.63534 24810 ft 398 kts 94°
2026-04-26 13:15 22.98538 86.66501 24443 ft 392 kts 94°
2026-04-26 13:15 22.98315 86.69431 24084 ft 387 kts 94°
2026-04-26 13:16 22.98100 86.72360 23723 ft 382 kts 93°
2026-04-26 13:16 22.97898 86.75177 23376 ft 377 kts 93°
2026-04-26 13:16 22.97700 86.77993 22967 ft 372 kts 93°
2026-04-26 13:16 22.97504 86.80772 22606 ft 367 kts 93°
2026-04-26 13:17 22.97121 86.86228 21915 ft 359 kts 92°
2026-04-26 13:17 22.96929 86.88947 21599 ft 365 kts 92°
2026-04-26 13:18 22.96537 86.94506 20903 ft 368 kts 92°
2026-04-26 13:18 22.96340 86.97256 20547 ft 362 kts 92°
2026-04-26 13:18 22.95955 87.02615 19876 ft 351 kts 92°
2026-04-26 13:19 22.95768 87.05230 19546 ft 345 kts 92°
2026-04-26 13:19 22.95582 87.07812 19231 ft 342 kts 92°
2026-04-26 13:19 22.95398 87.10378 18914 ft 340 kts 91°
2026-04-26 13:19 22.95214 87.12948 18593 ft 345 kts 92°
2026-04-26 13:20 22.95026 87.15566 18254 ft 350 kts 91°
2026-04-26 13:20 22.94836 87.18183 17894 ft 346 kts 91°
2026-04-26 13:20 22.94647 87.20769 17539 ft 341 kts 91°
2026-04-26 13:20 22.94462 87.23309 17183 ft 335 kts 91°
2026-04-26 13:21 22.94279 87.25810 16873 ft 329 kts 91°
2026-04-26 13:21 22.94160 87.27440 16667 ft 327 kts 91°
2026-04-26 13:21 22.93956 87.30733 16298 ft 330 kts 90°
2026-04-26 13:21 22.93816 87.33248 16015 ft 337 kts 90°
2026-04-26 13:22 22.93676 87.35795 15711 ft 339 kts 90°
2026-04-26 13:22 22.93533 87.38341 15397 ft 337 kts 90°
2026-04-26 13:22 22.93389 87.40872 15098 ft 335 kts 90°
2026-04-26 13:22 22.93244 87.43387 14797 ft 333 kts 91°
2026-04-26 13:23 22.93100 87.45882 14509 ft 331 kts 91°
2026-04-26 13:23 22.92956 87.48371 14220 ft 330 kts 91°
2026-04-26 13:23 22.92812 87.50847 13926 ft 329 kts 91°
2026-04-26 13:23 22.92668 87.53312 13624 ft 328 kts 91°
2026-04-26 13:24 22.92522 87.55784 13312 ft 326 kts 91°
2026-04-26 13:24 22.92378 87.58236 13001 ft 325 kts 91°
2026-04-26 13:24 22.92235 87.60673 12701 ft 323 kts 91°
2026-04-26 13:24 22.92093 87.63099 12406 ft 321 kts 91°
2026-04-26 13:25 22.91950 87.65511 12124 ft 320 kts 91°
2026-04-26 13:25 22.91808 87.67912 11836 ft 318 kts 91°
2026-04-26 13:25 22.91666 87.70301 11558 ft 317 kts 91°
2026-04-26 13:25 22.91526 87.72651 11276 ft 315 kts 91°
2026-04-26 13:26 22.91383 87.75048 10998 ft 314 kts 92°
2026-04-26 13:26 22.91244 87.77376 10725 ft 313 kts 92°
2026-04-26 13:26 22.91103 87.79728 10451 ft 312 kts 92°
2026-04-26 13:26 22.90961 87.82079 10170 ft 312 kts 92°
2026-04-26 13:27 22.90820 87.84419 9897 ft 310 kts 92°
2026-04-26 13:27 22.90680 87.86736 9605 ft 305 kts 92°
2026-04-26 13:27 22.90543 87.89009 9312 ft 299 kts 92°
2026-04-26 13:27 22.90407 87.91244 9032 ft 296 kts 92°
2026-04-26 13:28 22.90272 87.93462 8770 ft 294 kts 92°
2026-04-26 13:28 22.90136 87.95681 8510 ft 295 kts 93°
2026-04-26 13:28 22.89943 87.97894 8254 ft 295 kts 95°
2026-04-26 13:28 22.89711 88.00094 7998 ft 294 kts 96°
2026-04-26 13:29 22.89479 88.02288 7730 ft 293 kts 96°
2026-04-26 13:29 22.89325 88.03769 7549 ft 291 kts 96°
2026-04-26 13:29 22.89031 88.06647 7205 ft 289 kts 96°
2026-04-26 13:29 22.88812 88.08805 6956 ft 287 kts 96°
2026-04-26 13:30 22.88628 88.10955 6723 ft 285 kts 92°
2026-04-26 13:30 22.88656 88.13080 6571 ft 280 kts 87°
2026-04-26 13:30 22.88759 88.15175 6404 ft 278 kts 87°
2026-04-26 13:30 22.88868 88.17280 6263 ft 281 kts 87°
2026-04-26 13:31 22.88968 88.19401 6095 ft 282 kts 88°
2026-04-26 13:31 22.89058 88.21534 5933 ft 285 kts 88°
2026-04-26 13:31 22.89140 88.23562 5775 ft 284 kts 88°
2026-04-26 13:32 22.89217 88.25517 5625 ft 282 kts 88°
2026-04-26 13:32 22.89296 88.27634 5458 ft 279 kts 89°
2026-04-26 13:32 22.89371 88.29705 5298 ft 270 kts 89°
2026-04-26 13:32 22.89443 88.31706 5152 ft 261 kts 90°
2026-04-26 13:33 22.89513 88.33615 5034 ft 246 kts 89°
2026-04-26 13:33 22.89933 88.35349 4866 ft 234 kts 59°
2026-04-26 13:33 22.91027 88.36544 4759 ft 217 kts 31°
2026-04-26 13:33 22.92362 88.37130 4635 ft 203 kts
2026-04-26 13:34 22.93733 88.37308 4384 ft 200 kts
2026-04-26 13:34 22.95177 88.37426 4127 ft 225 kts
2026-04-26 13:34 22.96802 88.37559 3747 ft 238 kts
2026-04-26 13:34 22.97915 88.37654 3477 ft 236 kts
2026-04-26 13:35 22.99899 88.38395 2901 ft 228 kts 45°
2026-04-26 13:35 23.00715 88.39792 2506 ft 216 kts 79°
2026-04-26 13:35 23.00769 88.41356 2117 ft 203 kts 108°
2026-04-26 13:35 23.00214 88.42654 1974 ft 181 kts 133°
2026-04-26 13:36 22.99333 88.43558 1980 ft 169 kts 150°
2026-04-26 13:36 22.98294 88.44043 1993 ft 158 kts 163°
2026-04-26 13:36 22.97270 88.44444 1989 ft 154 kts 162°
2026-04-26 13:36 22.96286 88.44832 2014 ft 147 kts 163°
2026-04-26 13:37 22.95335 88.45204 2001 ft 144 kts 163°
2026-04-26 13:37 22.94383 88.45574 2014 ft 151 kts 163°
2026-04-26 13:37 22.93333 88.45979 2011 ft 165 kts 163°
2026-04-26 13:37 22.92251 88.46397 2013 ft 166 kts 163°
2026-04-26 13:38 22.91172 88.46815 2003 ft 163 kts 163°
2026-04-26 13:38 22.90107 88.47225 1995 ft 161 kts 165°
2026-04-26 13:38 22.89019 88.47380 2004 ft 156 kts 181°
2026-04-26 13:38 22.87931 88.47347 2004 ft 157 kts 184°
2026-04-26 13:39 22.86840 88.47263 2011 ft 158 kts 185°
2026-04-26 13:39 22.85727 88.47151 2012 ft 161 kts 185°
2026-04-26 13:39 22.84647 88.47031 2002 ft 149 kts 185°
2026-04-26 13:39 22.83657 88.46916 1996 ft 139 kts 185°
2026-04-26 13:40 22.82707 88.46806 2007 ft 137 kts 185°
2026-04-26 13:40 22.81757 88.46695 2024 ft 138 kts 186°
2026-04-26 13:40 22.80793 88.46581 2029 ft 140 kts 186°
2026-04-26 13:40 22.79815 88.46466 2029 ft 142 kts 186°
2026-04-26 13:41 22.78824 88.46349 2029 ft 144 kts 186°
2026-04-26 13:41 22.77825 88.46232 2008 ft 145 kts 187°
2026-04-26 13:41 22.76833 88.46115 1869 ft 143 kts 187°
2026-04-26 13:41 22.75855 88.46000 1693 ft 140 kts 187°
2026-04-26 13:42 22.74891 88.45886 1524 ft 142 kts 187°
2026-04-26 13:42 22.73892 88.45768 1337 ft 143 kts 187°
2026-04-26 13:42 22.73239 88.45691 1224 ft 141 kts 186°
2026-04-26 13:42 22.71951 88.45540 978 ft 140 kts 185°
2026-04-26 13:43 22.70968 88.45425 813 ft 147 kts 186°
2026-04-26 13:43 22.70311 88.45347 707 ft 154 kts 185°
2026-04-26 13:43 22.69252 88.45222 485 ft 150 kts 185°
2026-04-26 13:43 22.68247 88.45110 287 ft 142 kts 182°
2026-04-26 13:44 22.66953 88.44961 50 ft 140 kts 186°
2026-04-26 13:44 22.66331 88.44884 29 ft 121 kts 188°
2026-04-26 13:44 22.65744 88.44816 30 ft 42 kts 185°
2026-04-26 13:44 22.65644 88.44726 30 ft 13 kts 277°
2026-04-26 13:45 22.65644 88.44722 30 ft 0 kts 273°
2026-04-26 13:47 22.65645 88.44712 30 ft 7 kts 273°
2026-04-26 13:47 22.65656 88.44604 29 ft 19 kts 276°
2026-04-26 13:47 22.65605 88.44488 28 ft 16 kts 218°
2026-04-26 13:48 22.65572 88.44384 28 ft 16 kts 275°
2026-04-26 13:48 22.65573 88.44369 28 ft 0 kts 276°
2026-04-26 13:48 22.65574 88.44360 28 ft 6 kts 276°
2026-04-26 13:48 22.65578 88.44327 28 ft 0 kts 277°